South Lake Tahoe, CA

6:20 PM PDT on May 25, 2017 (GMT -0700)
Lake Tahoe

Weather History for KTVL - February, 2014

Change the Weather History Date:

Friday, February 21, 2014

  Actual Average Record
Temperature  
Mean Temperature 40 °F 32 °F  
Max Temperature 55 °F 45 °F 59 °F (1982)
Min Temperature 24 °F 19 °F -5 °F (1975)
Degree Days  
Heating Degree Days 25 33  
Month to date heating degree days 595 725  
Since 1 July heating degree days 4436 5007  
Cooling Degree Days 0 0  
Month to date cooling degree days 0 0  
Year to date cooling degree days 0 0  
Moisture  
Dew Point 22 °F    
Average Humidity 52    
Maximum Humidity 75    
Minimum Humidity 28    
Precipitation  
Precipitation 0.00 in - 1.85 in (1936)
Month to date precipitation 4.52  
Year to date precipitation 6.79  
Sea Level Pressure  
Sea Level Pressure 30.07 in    
Wind  
Wind Speed 2 mph (South)    
Max Wind Speed 12 mph    
Max Gust Speed 17 mph    
Visibility 10 miles    
Events      
T = Trace of Precipitation, MM = Missing Value Source: NWS Daily Summary

Daily Weather History Graph

Daily Weather History Graph

Search for Another Location

Airport or City:

Trip Planner

Search our weather history database for the weather conditions in past years. The results will help you decide how hot, cold, wet, or windy it might be!

Date:

Astronomy

Feb. 21, 2014 Rise Set
Actual Time 6:43 AM PST 5:44 PM PST
Civil Twilight 6:16 AM PST 6:11 PM PST
Nautical Twilight 5:45 AM PST 6:42 PM PST
Astronomical Twilight 5:14 AM PST 7:13 PM PST
Moon No Moon Rise 10:15 AM PST (2/21)
Length of Visible Light 11h 54m
Length of Day
11h 00m
Waning Gibbous, 59% of the Moon is Illuminated
Feb 21
Waning Gibbous
Feb 22
Last Quarter
Mar 1
New
Mar 8
First Quarter
Mar 16
Full

Hourly Weather History & Observations

Time (PST) Temp. Windchill Dew Point Humidity Pressure Visibility Wind Dir Wind Speed Gust Speed Precip Events Conditions
12:53 AM 28.9 °F - 21.0 °F 72% 30.12 in 10.0 mi Calm Calm - N/A   Clear
1:53 AM 28.0 °F - 19.9 °F 72% 30.12 in 10.0 mi Calm Calm - N/A   Clear
2:53 AM 27.0 °F 23.0 °F 19.9 °F 75% 30.12 in 10.0 mi SSW 3.5 mph - N/A   Clear
3:53 AM 27.0 °F - 19.0 °F 72% 30.12 in 10.0 mi Calm Calm - N/A   Clear
4:53 AM 26.1 °F 21.9 °F 18.0 °F 71% 30.13 in 10.0 mi SSW 3.5 mph - N/A   Clear
5:53 AM 25.0 °F 20.7 °F 18.0 °F 75% 30.14 in 10.0 mi South 3.5 mph - N/A   Clear
6:53 AM 25.0 °F - 18.0 °F 75% 30.15 in 10.0 mi Calm Calm - N/A   Clear
7:53 AM 26.1 °F 21.9 °F 19.9 °F 78% 30.17 in 10.0 mi South 3.5 mph - N/A   Clear
8:53 AM 35.1 °F - 21.9 °F 59% 30.14 in 10.0 mi Calm Calm - N/A   Clear
9:53 AM 45.0 °F - 19.0 °F 36% 30.10 in 10.0 mi Calm Calm - N/A   Clear
10:53 AM 48.9 °F - 23.0 °F 36% 30.09 in 10.0 mi NE 4.6 mph - N/A   Clear
11:53 AM 52.0 °F - 19.9 °F 28% 30.05 in 10.0 mi Variable 6.9 mph - N/A   Clear
12:53 PM 53.1 °F - 21.0 °F 29% 30.03 in 10.0 mi Variable 5.8 mph - N/A   Clear
1:53 PM 53.1 °F - 21.9 °F 30% 30.01 in 10.0 mi SSW 6.9 mph - N/A   Clear
2:53 PM 53.1 °F - 23.0 °F 31% 30.01 in 10.0 mi Variable 3.5 mph - N/A   Clear
3:53 PM 52.0 °F - 23.0 °F 32% 30.01 in 10.0 mi Variable 3.5 mph - N/A   Clear
4:53 PM 48.0 °F - 25.0 °F 41% 30.01 in 10.0 mi Variable 4.6 mph - N/A   Clear
5:53 PM 42.1 °F - 26.1 °F 53% 30.04 in 10.0 mi Calm Calm - N/A   Clear
6:53 PM 37.9 °F - 25.0 °F 60% 30.06 in 10.0 mi Calm Calm - N/A   Clear
7:53 PM 36.0 °F - 25.0 °F 64% 30.07 in 10.0 mi Calm Calm - N/A   Clear
8:53 PM 32.0 °F - 24.1 °F 73% 30.05 in 10.0 mi Calm Calm - N/A   Clear
9:53 PM 30.9 °F - 23.0 °F 72% 30.03 in 10.0 mi Calm Calm - N/A   Clear
10:53 PM 28.9 °F - 21.9 °F 75% 30.02 in 10.0 mi Calm Calm - N/A   Clear
11:53 PM 28.9 °F 25.2 °F 21.9 °F 75% 30.01 in 10.0 mi South 3.5 mph - N/A   Clear